Weather History for Preston, MN

Change the Weather History Date:

Friday, January 18, 2013

  Actual Average (KRST) Record (KRST)
Temperature  
Mean Temperature 30 °F 15 °F  
Max Temperature 44 °F 23 °F 46 °F (1919)
Min Temperature 17 °F 7 °F -31 °F (1967)
Degree Days  
Heating Degree Days 34 50  
Month to date heating degree days 891  
Since 1 July heating degree days 3969  
Cooling Degree Days 0 0  
Month to date cooling degree days 0  
Year to date cooling degree days 0  
Moisture  
Dew Point 26 °F    
Average Humidity 79    
Maximum Humidity 90    
Minimum Humidity 61    
Precipitation  
Precipitation 0.00 in 0.03 in 0.48 in (1996)
Month to date precipitation 0.50  
Year to date precipitation 0.50  
Snow  
Snow 0.00 in 0.40 in 6.90 in (1996)
Month to date snowfall 6.6  
Since 1 July snowfall 26.0  
Snow Depth -    
Sea Level Pressure  
Sea Level Pressure 29.94 in    
Wind  
Wind Speed 11 mph (SSW)    
Max Wind Speed 24 mph    
Max Gust Speed 32 mph    
Visibility 10 miles    
Events Snow    
T = Trace of Precipitation, MM = Missing Value Source: NWS Daily Summary

Daily Weather History Graph

Daily Weather History Graph

Search for Another Location

Airport:

Trip Planner

Search our weather history database for the weather conditions in past years. The results will help you decide how hot, cold, wet, or windy it might be!

Date:

Astronomy

Jan. 18, 2013 Rise Set
Actual Time 7:37 AM CST 5:01 PM CST
Civil Twilight 7:05 AM CST 5:33 PM CST
Nautical Twilight 6:30 AM CST 6:08 PM CST
Astronomical Twilight 5:56 AM CST 6:42 PM CST
Moon 11:00 AM CST (1/18) 12:07 AM CST (1/18)
Length of Visible Light 10h 27m
Length of Day
9h 24m
Waxing Crescent, 47% of the Moon is Illuminated
Jan 18
Waxing Crescent
Jan 18
First Quarter
Jan 26
Full
Feb 3
Last Quarter
Feb 10
New

Hourly Weather History & Observations

Time (CST) Temp. Windchill Dew Point Humidity Pressure Visibility Wind Dir Wind Speed Gust Speed Precip Events Conditions
12:10 AM 17.6 °F 10.7 °F 14.0 °F 86% 30.30 in 10.0 mi South 4.6 mph - N/A   Overcast
12:29 AM 17.6 °F 12.3 °F 13.8 °F 85% 30.29 in 10.0 mi SE 3.5 mph - N/A   Overcast
12:50 AM 17.6 °F 9.3 °F 14.0 °F 86% 30.28 in 10.0 mi SE 5.8 mph - N/A   Overcast
1:10 AM 18.0 °F 8.7 °F 14.7 °F 87% 30.28 in 5.0 mi SE 6.9 mph - N/A Snow Light Snow
1:30 AM 18.3 °F 11.5 °F 14.9 °F 86% 30.27 in 10.0 mi SSE 4.6 mph - N/A   Overcast
1:49 AM 18.3 °F 10.2 °F 14.9 °F 86% 30.27 in 10.0 mi SE 5.8 mph - N/A   Overcast
2:10 AM 18.9 °F 10.8 °F 15.6 °F 87% 30.26 in 10.0 mi SSE 5.8 mph - N/A   Overcast
2:30 AM 19.2 °F 9.3 °F 15.8 °F 87% 30.24 in 7.0 mi SE 8.1 mph - N/A   Overcast
2:50 AM 19.4 °F 8.6 °F 16.2 °F 87% 30.23 in 10.0 mi SSE 9.2 mph - N/A   Overcast
3:10 AM 19.9 °F 10.1 °F 16.5 °F 87% 30.22 in 10.0 mi SE 8.1 mph - N/A   Overcast
3:30 AM 20.3 °F 9.8 °F 16.7 °F 86% 30.21 in 10.0 mi SE 9.2 mph - N/A   Overcast
3:50 AM 20.3 °F 10.6 °F 16.7 °F 86% 30.19 in 10.0 mi SSE 8.1 mph - N/A   Overcast
4:10 AM 20.5 °F 8.0 °F 16.7 °F 85% 30.17 in 10.0 mi SSE 12.7 mph - N/A   Scattered Clouds
4:30 AM 20.8 °F 8.4 °F 17.4 °F 87% 30.15 in 10.0 mi SSE 12.7 mph - N/A   Clear
4:49 AM 21.2 °F 7.8 °F 18.0 °F 87% 30.13 in 10.0 mi SSE 15.0 mph - N/A   Clear
5:09 AM 22.1 °F 9.5 °F 18.5 °F 86% 30.10 in 10.0 mi SSE 13.8 mph 20.7 mph N/A   Clear
5:29 AM 23.0 °F 10.6 °F 19.2 °F 85% 30.09 in 10.0 mi SSE 13.8 mph 17.3 mph N/A   Scattered Clouds
5:50 AM 23.7 °F 11.5 °F 19.8 °F 85% 30.07 in 10.0 mi SSE 13.8 mph 20.7 mph N/A   Scattered Clouds
6:10 AM 23.9 °F 12.9 °F 20.1 °F 85% 30.06 in 10.0 mi SSE 11.5 mph - N/A   Clear
6:29 AM 25.0 °F 13.6 °F 21.0 °F 85% 30.04 in 10.0 mi SSE 12.7 mph - N/A   Clear
6:50 AM 25.9 °F 13.8 °F 21.6 °F 84% 30.02 in 10.0 mi South 15.0 mph 19.6 mph N/A   Mostly Cloudy
7:10 AM 27.1 °F 14.5 °F 22.1 °F 81% 30.00 in 10.0 mi South 17.3 mph - N/A   Mostly Cloudy
7:30 AM 27.5 °F 16.8 °F 22.8 °F 83% 29.99 in 10.0 mi South 12.7 mph 20.7 mph N/A   Scattered Clouds
7:50 AM 27.5 °F 15.4 °F 23.0 °F 83% 29.98 in 10.0 mi South 16.1 mph 19.6 mph N/A   Mostly Cloudy
8:10 AM 28.2 °F 17.2 °F 23.5 °F 83% 29.97 in 10.0 mi South 13.8 mph 19.6 mph N/A   Scattered Clouds
8:29 AM 28.8 °F 16.6 °F 23.9 °F 82% 29.96 in 10.0 mi South 17.3 mph 23.0 mph N/A   Mostly Cloudy
8:50 AM 29.1 °F 17.9 °F 24.4 °F 83% 29.96 in 10.0 mi South 15.0 mph 21.9 mph N/A   Overcast
9:10 AM 30.0 °F 18.7 °F 25.2 °F 82% 29.95 in 10.0 mi SSW 16.1 mph 25.3 mph N/A   Overcast
9:30 AM 31.8 °F 21.8 °F 26.1 °F 79% 29.95 in 10.0 mi SSW 13.8 mph - N/A   Mostly Cloudy
9:49 AM 33.1 °F 23.4 °F 27.0 °F 78% 29.94 in 10.0 mi SSW 13.8 mph 18.4 mph N/A   Mostly Cloudy
10:10 AM 33.8 °F 22.8 °F 27.3 °F 77% 29.93 in 10.0 mi SSW 18.4 mph - N/A   Mostly Cloudy
10:30 AM 34.9 °F 24.2 °F 27.5 °F 74% 29.91 in 10.0 mi SSW 18.4 mph 28.8 mph N/A   Clear
10:50 AM 35.6 °F 24.8 °F 27.9 °F 73% 29.89 in 10.0 mi SSW 19.6 mph 28.8 mph N/A   Clear
11:10 AM 36.1 °F 25.5 °F 28.4 °F 73% 29.87 in 10.0 mi SSW 19.6 mph 25.3 mph N/A   Clear
11:30 AM 37.4 °F 28.5 °F 28.9 °F 71% 29.86 in 10.0 mi SSW 15.0 mph 25.3 mph N/A   Clear
11:49 AM 39.4 °F 30.4 °F 29.8 °F 69% 29.84 in 10.0 mi SW 17.3 mph 25.3 mph N/A   Clear
12:10 PM 41.9 °F 33.4 °F 30.7 °F 65% 29.83 in 10.0 mi SW 18.4 mph 26.5 mph N/A   Clear
12:29 PM 42.6 °F 33.1 °F 30.2 °F 61% 29.82 in 10.0 mi SW 24.2 mph 28.8 mph N/A   Clear
12:50 PM 42.8 °F 35.1 °F 30.9 °F 63% 29.80 in 10.0 mi SW 16.1 mph 32.2 mph N/A   Clear
1:10 PM 42.6 °F 33.1 °F 30.9 °F 63% 29.79 in 10.0 mi SW 24.2 mph 32.2 mph N/A   Clear
1:29 PM 43.3 °F 35.2 °F 31.6 °F 63% 29.79 in 10.0 mi SW 18.4 mph 26.5 mph N/A   Clear
1:50 PM 43.9 °F 36.2 °F 32.0 °F 63% 29.79 in 10.0 mi SW 17.3 mph 26.5 mph N/A   Clear
2:10 PM 44.6 °F 37.4 °F 32.2 °F 62% 29.78 in 10.0 mi SW 16.1 mph 23.0 mph N/A   Clear
2:30 PM 43.9 °F 35.9 °F 32.0 °F 63% 29.78 in 10.0 mi SW 18.4 mph 27.6 mph N/A   Clear
2:50 PM 43.7 °F 35.4 °F 32.0 °F 63% 29.77 in 10.0 mi SW 19.6 mph 28.8 mph N/A   Clear
3:10 PM 43.7 °F 35.2 °F 32.4 °F 64% 29.76 in 10.0 mi SW 20.7 mph 24.2 mph N/A   Clear
3:30 PM 43.7 °F 36.9 °F 32.7 °F 65% 29.76 in 10.0 mi SW 13.8 mph 21.9 mph N/A   Clear
3:50 PM 43.0 °F 35.7 °F 32.4 °F 66% 29.77 in 10.0 mi SW 15.0 mph 24.2 mph N/A   Clear
4:10 PM 42.1 °F 34.9 °F 32.4 °F 68% 29.77 in 10.0 mi SW 13.8 mph 19.6 mph N/A   Clear
4:30 PM 42.1 °F 34.5 °F 32.2 °F 68% 29.77 in 10.0 mi SW 15.0 mph 20.7 mph N/A   Clear
4:50 PM 41.4 °F 34.0 °F 32.4 °F 70% 29.78 in 10.0 mi SW 13.8 mph - N/A   Clear
5:10 PM 40.5 °F 33.2 °F 32.2 °F 72% 29.78 in 10.0 mi WSW 12.7 mph - N/A   Clear
5:29 PM 40.3 °F 33.4 °F 32.2 °F 73% 29.79 in 10.0 mi WSW 11.5 mph - N/A   Clear
5:50 PM 40.1 °F 32.7 °F 32.0 °F 73% 29.79 in 10.0 mi WSW 12.7 mph 17.3 mph N/A   Clear
6:09 PM 39.4 °F 31.8 °F 32.0 °F 75% 29.79 in 10.0 mi WSW 12.7 mph 19.6 mph N/A   Clear
6:29 PM 39.2 °F 31.6 °F 32.0 °F 75% 29.79 in 10.0 mi WSW 12.7 mph 16.1 mph N/A   Clear
6:50 PM 39.0 °F 31.8 °F 32.0 °F 76% 29.79 in 10.0 mi WSW 11.5 mph 19.6 mph N/A   Clear
7:10 PM 37.8 °F 30.7 °F 32.0 °F 80% 29.80 in 10.0 mi WSW 10.4 mph 18.4 mph N/A   Clear
7:30 PM 37.4 °F 29.3 °F 32.0 °F 81% 29.80 in 10.0 mi WSW 12.7 mph 16.1 mph N/A   Clear
7:50 PM 36.9 °F 28.2 °F 31.8 °F 82% 29.80 in 10.0 mi WSW 13.8 mph - N/A   Clear
8:09 PM 36.5 °F 28.2 °F 31.6 °F 83% 29.80 in 10.0 mi West 12.7 mph 19.6 mph N/A   Clear
8:30 PM 35.8 °F 26.5 °F 31.1 °F 83% 29.81 in 10.0 mi West 15.0 mph - N/A   Clear
8:49 PM 35.1 °F 26.9 °F 30.9 °F 85% 29.81 in 10.0 mi West 11.5 mph - N/A   Clear
9:09 PM 34.7 °F 26.4 °F 30.7 °F 85% 29.80 in 10.0 mi West 11.5 mph - N/A   Clear
9:30 PM 34.3 °F 26.5 °F 30.4 °F 85% 29.80 in 10.0 mi West 10.4 mph - N/A   Clear
9:49 PM 33.8 °F 26.4 °F 30.0 °F 86% 29.81 in 10.0 mi West 9.2 mph - N/A   Clear
10:09 PM 33.3 °F 25.1 °F 29.8 °F 87% 29.81 in 10.0 mi West 10.4 mph - N/A   Clear
10:29 PM 33.1 °F 26.1 °F 29.7 °F 87% 29.82 in 10.0 mi West 8.1 mph - N/A   Clear
10:50 PM 33.4 °F 28.1 °F 30.0 °F 87% 29.81 in 10.0 mi WSW 5.8 mph - N/A   Clear
11:10 PM 33.3 °F 27.1 °F 29.8 °F 87% 29.81 in 10.0 mi WSW 6.9 mph - N/A   Clear
11:30 PM 32.4 °F 26.0 °F 29.5 °F 89% 29.80 in 10.0 mi SSW 6.9 mph - N/A   Clear
11:50 PM 32.9 °F 25.9 °F 30.2 °F 90% 29.80 in 10.0 mi WSW 8.1 mph - N/A   Clear